Retour au catalogue

THOR ABLESTAR R/B

ActifLEO
NORAD 118·ROCKET BODY·🇺🇸 United States

Lancé Jun 29, 1961 depuis Cape Canaveral Space Force Station

Loading…

Prochains Passages (prochaines 24 heures)

TLE

FraisSource: Space-Track

Époque: Sep 5, 2026, 08:28 UTC

1 00118U 61015C   26248.35280412  .00000004  00000-0  52000-4 0  9995
2 00118  66.7621 220.5644 0086649 219.0536 140.4273 14.02757559327381

Suivez THOR ABLESTAR R/B en temps réel avec AllMySat

Download on the App Store